�������l�o���
Date,Time,MP-1(��Sv/h),MP-2(��Sv/h),MP-3(��Sv/h),MP-4(��Sv/h),MP-5(��Sv/h),MP-6(��Sv/h),MP-7(��Sv/h),MP-8(��Sv/h),����,����(m/s),���J
2019/01/29,00:00,0.768,1.132,0.801,1.453,1.038,0.444,0.794,0.752,�k��,4.2,��
2019/01/29,00:10,0.769,1.130,0.801,1.454,1.039,0.444,0.792,0.752,�k��,3.7,��
2019/01/29,00:20,0.769,1.129,0.801,1.454,1.038,0.445,0.792,0.751,�k��,4.4,��
2019/01/29,00:30,0.768,1.130,0.802,1.454,1.038,0.444,0.793,0.750,�k,5.3,��
2019/01/29,00:40,0.768,1.131,0.800,1.455,1.041,0.444,0.792,0.751,�k�k��,6.0,�L
2019/01/29,00:50,0.769,1.131,0.800,1.454,1.039,0.444,0.792,0.750,�k��,6.5,�L
2019/01/29,01:00,0.770,1.131,0.801,1.452,1.038,0.443,0.790,0.751,�k��,8.5,�L
2019/01/29,01:10,0.767,1.124,0.801,1.455,1.037,0.443,0.793,0.749,�k��,9.3,��
2019/01/29,01:20,0.770,1.125,0.802,1.451,1.038,0.443,0.793,0.751,�k��,8.5,��
2019/01/29,01:30,0.769,1.125,0.802,1.453,1.040,0.443,0.792,0.748,���k��,8.5,��
2019/01/29,01:40,0.769,1.124,0.802,1.453,1.041,0.442,0.792,0.749,���k��,11.7,�L
2019/01/29,01:50,0.768,1.125,0.799,1.454,1.038,0.442,0.792,0.748,�k��,5.9,�L
2019/01/29,02:00,0.769,1.124,0.799,1.452,1.039,0.440,0.793,0.750,�k��,5.7,��
2019/01/29,02:10,0.770,1.124,0.798,1.454,1.038,0.442,0.791,0.751,�k�k��,7.9,��
2019/01/29,02:20,0.769,1.126,0.800,1.456,1.039,0.441,0.791,0.748,�k��,10.6,��
2019/01/29,02:30,0.768,1.125,0.798,1.455,1.038,0.441,0.791,0.750,�k��,10.2,��
2019/01/29,02:40,0.770,1.124,0.798,1.456,1.037,0.443,0.792,0.749,�k��,10.0,�L
2019/01/29,02:50,0.767,1.126,0.799,1.454,1.039,0.440,0.791,0.749,���k��,7.8,�L
2019/01/29,03:00,0.766,1.124,0.799,1.455,1.038,0.442,0.791,0.750,���k��,7.3,�L
2019/01/29,03:10,0.769,1.124,0.799,1.457,1.036,0.441,0.794,0.749,�k��,10.8,��
2019/01/29,03:20,0.766,1.124,0.800,1.453,1.035,0.442,0.792,0.749,�k��,9.0,��
2019/01/29,03:30,0.767,1.126,0.799,1.456,1.039,0.441,0.791,0.751,���k��,9.2,��
2019/01/29,03:40,0.768,1.123,0.799,1.453,1.034,0.441,0.792,0.749,���k��,8.5,��
2019/01/29,03:50,0.766,1.124,0.797,1.454,1.038,0.440,0.792,0.749,���k��,9.5,��
2019/01/29,04:00,0.766,1.121,0.797,1.455,1.035,0.442,0.791,0.751,���k��,10.3,��
2019/01/29,04:10,0.765,1.123,0.797,1.453,1.037,0.440,0.792,0.750,���k��,12.2,��
2019/01/29,04:20,0.766,1.122,0.798,1.455,1.036,0.442,0.790,0.750,���k��,12.4,��
2019/01/29,04:30,0.765,1.123,0.798,1.453,1.039,0.443,0.791,0.752,���k��,11.9,��
2019/01/29,04:40,0.765,1.121,0.798,1.451,1.038,0.441,0.791,0.751,���k��,11.3,��
2019/01/29,04:50,0.764,1.123,0.797,1.454,1.035,0.442,0.792,0.751,���k��,10.0,��
2019/01/29,05:00,0.764,1.122,0.797,1.455,1.035,0.441,0.791,0.749,���k��,8.5,��
2019/01/29,05:10,0.765,1.122,0.798,1.455,1.037,0.441,0.789,0.749,���k��,9.0,��
2019/01/29,05:20,0.766,1.124,0.799,1.456,1.037,0.442,0.791,0.752,���k��,8.5,��
2019/01/29,05:30,0.765,1.126,0.800,1.457,1.036,0.442,0.792,0.750,���k��,5.9,��
2019/01/29,05:40,0.766,1.125,0.800,1.455,1.035,0.442,0.792,0.751,�k��,7.0,��
2019/01/29,05:50,0.765,1.126,0.800,1.458,1.037,0.442,0.790,0.750,���k��,7.8,��
2019/01/29,06:00,0.766,1.124,0.799,1.455,1.037,0.443,0.790,0.749,���k��,6.9,��
2019/01/29,06:10,0.765,1.123,0.801,1.455,1.034,0.442,0.790,0.750,���k��,6.9,��
2019/01/29,06:20,0.767,1.124,0.800,1.457,1.036,0.443,0.791,0.750,���k��,7.6,��
2019/01/29,06:30,0.766,1.126,0.801,1.456,1.035,0.442,0.792,0.750,���k��,7.1,��
2019/01/29,06:40,0.767,1.124,0.799,1.456,1.034,0.444,0.793,0.750,���k��,5.7,��
2019/01/29,06:50,0.765,1.121,0.802,1.455,1.035,0.442,0.788,0.751,�k��,5.8,��
2019/01/29,07:00,0.766,1.124,0.800,1.456,1.034,0.443,0.790,0.751,�k�k��,5.9,��
2019/01/29,07:10,0.767,1.125,0.800,1.457,1.037,0.442,0.791,0.751,�k��,7.3,��
2019/01/29,07:20,0.767,1.122,0.800,1.457,1.035,0.442,0.791,0.749,�k��,4.8,��
2019/01/29,07:30,0.765,1.122,0.800,1.458,1.038,0.442,0.791,0.751,���k��,4.3,��
2019/01/29,07:40,0.768,1.122,0.799,1.456,1.037,0.443,0.792,0.751,�k��,5.5,��
2019/01/29,07:50,0.768,1.122,0.801,1.455,1.036,0.442,0.792,0.751,�k��,4.1,��
2019/01/29,08:00,0.765,1.122,0.799,1.457,1.037,0.441,0.791,0.750,���k��,6.8,��
2019/01/29,08:10,0.768,1.122,0.800,1.458,1.034,0.443,0.792,0.751,���k��,5.6,��
2019/01/29,08:20,0.767,1.122,0.801,1.458,1.037,0.441,0.792,0.751,���k��,9.9,��
2019/01/29,08:30,0.769,1.120,0.799,1.456,1.037,0.443,0.791,0.751,���k��,7.7,��
2019/01/29,08:40,0.768,1.119,0.800,1.458,1.035,0.441,0.793,0.749,�k��,8.8,��
2019/01/29,08:50,0.769,1.121,0.801,1.458,1.034,0.444,0.791,0.752,�k��,7.1,��
2019/01/29,09:00,0.769,1.124,0.800,1.460,1.036,0.442,0.792,0.752,�k��,8.7,��
2019/01/29,09:10,0.770,1.121,0.800,1.459,1.033,0.441,0.795,0.750,���k��,8.3,��
2019/01/29,09:20,0.769,1.121,0.798,1.460,1.035,0.442,0.792,0.750,���k��,8.3,��
2019/01/29,09:30,0.770,1.120,0.801,1.461,1.036,0.440,0.795,0.750,���k��,9.1,��
2019/01/29,09:40,0.771,1.123,0.801,1.461,1.035,0.440,0.791,0.751,���k��,7.2,��
2019/01/29,09:50,0.769,1.124,0.800,1.459,1.036,0.442,0.790,0.752,�k��,8.3,��
2019/01/29,10:00,0.770,1.122,0.801,1.458,1.036,0.441,0.791,0.751,�k��,8.5,��
2019/01/29,10:10,0.772,1.121,0.800,1.459,1.039,0.442,0.790,0.750,�k��,10.3,��
2019/01/29,10:20,0.769,1.127,0.798,1.462,1.037,0.444,0.793,0.751,�k��,12.5,��
2019/01/29,10:30,0.773,1.125,0.802,1.460,1.038,0.443,0.791,0.750,�k��,11.8,��
2019/01/29,10:40,0.770,1.125,0.799,1.462,1.040,0.441,0.793,0.752,�k��,11.6,��
2019/01/29,10:50,0.772,1.127,0.794,1.461,1.039,0.445,0.791,0.752,�k��,12.5,��
2019/01/29,11:00,0.772,1.126,0.794,1.461,1.043,0.445,0.791,0.750,�k��,14.9,��
2019/01/29,11:10,0.771,1.128,0.798,1.463,1.042,0.444,0.793,0.749,���k��,12.4,��
2019/01/29,11:20,0.772,1.128,0.801,1.460,1.043,0.442,0.793,0.750,���k��,10.0,��
2019/01/29,11:30,0.771,1.129,0.800,1.462,1.042,0.444,0.792,0.750,�k��,12.7,��
2019/01/29,11:40,0.771,1.132,0.800,1.465,1.044,0.444,0.791,0.752,�k��,11.4,��
2019/01/29,11:50,0.773,1.131,0.800,1.465,1.044,0.443,0.791,0.751,�k��,12.7,��
2019/01/29,12:00,0.777,1.134,0.801,1.462,1.047,0.443,0.790,0.751,���k��,12.0,��
2019/01/29,12:10,0.773,1.134,0.801,1.465,1.047,0.444,0.792,0.752,�k��,13.8,��
2019/01/29,12:20,0.775,1.131,0.801,1.465,1.045,0.444,0.793,0.750,���k��,13.5,��
2019/01/29,12:30,0.772,1.134,0.798,1.463,1.045,0.445,0.790,0.752,�k��,14.4,��
2019/01/29,12:40,0.777,1.133,0.802,1.464,1.046,0.445,0.792,0.753,�k��,12.7,��
2019/01/29,12:50,0.774,1.132,0.802,1.466,1.046,0.443,0.792,0.752,���k��,11.4,��
2019/01/29,13:00,0.773,1.134,0.803,1.466,1.044,0.445,0.793,0.753,���k��,16.3,��
2019/01/29,13:10,0.774,1.133,0.803,1.466,1.048,0.445,0.794,0.753,���k��,11.6,��
2019/01/29,13:20,0.776,1.132,0.802,1.468,1.042,0.446,0.792,0.755,�k��,14.4,��
2019/01/29,13:30,0.775,1.134,0.802,1.467,1.044,0.444,0.794,0.753,�k��,18.0,��
2019/01/29,13:40,0.776,1.135,0.803,1.468,1.046,0.445,0.793,0.751,�k��,12.1,��
2019/01/29,13:50,0.776,1.133,0.801,1.467,1.043,0.445,0.794,0.750,�k��,14.6,��
2019/01/29,14:00,0.775,1.134,0.803,1.469,1.047,0.447,0.795,0.750,�k��,12.8,��
2019/01/29,14:10,0.776,1.131,0.804,1.471,1.045,0.444,0.793,0.749,�k��,13.3,��
2019/01/29,14:20,0.775,1.126,0.803,1.469,1.047,0.446,0.794,0.751,�k��,14.7,��
2019/01/29,14:30,0.775,1.137,0.804,1.473,1.045,0.446,0.794,0.750,�k��,11.3,��
2019/01/29,14:40,0.773,1.134,0.804,1.469,1.047,0.444,0.793,0.750,�k��,13.5,��
2019/01/29,14:50,0.773,1.138,0.804,1.472,1.048,0.445,0.793,0.753,�k��,12.2,��
2019/01/29,15:00,0.775,1.136,0.804,1.474,1.049,0.445,0.793,0.751,�k��,11.1,��
2019/01/29,15:10,0.775,1.135,0.806,1.473,1.049,0.446,0.795,0.751,�k��,10.0,��
2019/01/29,15:20,0.775,1.135,0.805,1.473,1.050,0.445,0.794,0.752,�k��,13.0,��
2019/01/29,15:30,0.773,1.137,0.805,1.471,1.049,0.444,0.794,0.751,�k��,10.0,��
2019/01/29,15:40,0.774,1.137,0.804,1.473,1.051,0.446,0.792,0.751,�k�k��,13.6,��
2019/01/29,15:50,0.775,1.140,0.805,1.475,1.051,0.445,0.794,0.751,�k�k��,11.9,��
2019/01/29,16:00,0.777,1.138,0.805,1.472,1.046,0.444,0.794,0.751,�k��,13.1,��
2019/01/29,16:10,0.774,1.141,0.805,1.473,1.048,0.444,0.795,0.751,�k�k��,13.0,��
2019/01/29,16:20,0.773,1.141,0.803,1.471,1.048,0.444,0.793,0.751,�k��,11.9,��
2019/01/29,16:30,0.775,1.138,0.806,1.476,1.050,0.444,0.795,0.752,�k��,9.7,��
2019/01/29,16:40,0.774,1.139,0.804,1.475,1.049,0.444,0.793,0.751,�k�k��,10.5,��
2019/01/29,16:50,0.776,1.141,0.803,1.473,1.050,0.444,0.793,0.751,�k�k��,11.4,��
2019/01/29,17:00,0.775,1.142,0.803,1.474,1.051,0.444,0.795,0.752,�k��,11.3,��
2019/01/29,17:10,0.774,1.142,0.802,1.473,1.049,0.444,0.793,0.752,�k��,10.0,��
2019/01/29,17:20,0.774,1.140,0.802,1.473,1.050,0.444,0.794,0.750,�k��,9.2,��
2019/01/29,17:30,0.772,1.142,0.805,1.472,1.050,0.444,0.792,0.752,�k�k��,7.2,��
2019/01/29,17:40,0.773,1.140,0.802,1.476,1.053,0.444,0.794,0.750,�k�k��,10.2,��
2019/01/29,17:50,0.774,1.139,0.805,1.474,1.052,0.445,0.793,0.750,�k�k��,7.9,��
2019/01/29,18:00,0.773,1.125,0.804,1.475,1.050,0.441,0.792,0.749,�k�k��,9.5,��
2019/01/29,18:10,0.773,1.144,0.803,1.477,1.049,0.441,0.793,0.751,�k�k��,8.2,��
2019/01/29,18:20,0.770,1.143,0.803,1.475,1.049,0.442,0.792,0.751,�k�k��,10.6,��
2019/01/29,18:30,0.772,1.145,0.802,1.474,1.051,0.441,0.791,0.750,�k,8.2,��
2019/01/29,18:40,0.772,1.145,0.803,1.475,1.049,0.444,0.792,0.752,�k�k��,10.6,��
2019/01/29,18:50,0.771,1.145,0.801,1.477,1.050,0.443,0.792,0.750,�k�k��,10.6,��
2019/01/29,19:00,0.774,1.145,0.804,1.474,1.050,0.442,0.792,0.750,�k�k��,11.0,��
2019/01/29,19:10,0.773,1.143,0.805,1.473,1.048,0.442,0.793,0.751,�k�k��,11.3,��
2019/01/29,19:20,0.773,1.144,0.805,1.473,1.050,0.443,0.792,0.749,�k�k��,8.8,��
2019/01/29,19:30,0.774,1.143,0.803,1.475,1.052,0.442,0.793,0.751,�k�k��,9.4,��
2019/01/29,19:40,0.772,1.145,0.806,1.473,1.050,0.444,0.793,0.750,�k�k��,7.9,��
2019/01/29,19:50,0.772,1.143,0.803,1.473,1.050,0.442,0.792,0.751,�k,8.1,��
2019/01/29,20:00,0.772,1.145,0.804,1.474,1.051,0.443,0.792,0.751,�k,8.2,��
2019/01/29,20:10,0.773,1.145,0.803,1.474,1.053,0.442,0.792,0.752,�k�k��,8.5,��
2019/01/29,20:20,0.771,1.144,0.802,1.474,1.050,0.443,0.793,0.750,�k�k��,7.0,��
2019/01/29,20:30,0.772,1.144,0.805,1.475,1.048,0.445,0.792,0.751,�k�k��,7.0,��
2019/01/29,20:40,0.772,1.146,0.806,1.474,1.050,0.443,0.792,0.749,�k��,6.9,��
2019/01/29,20:50,0.773,1.145,0.804,1.475,1.049,0.443,0.791,0.750,�k��,6.8,��
2019/01/29,21:00,0.773,1.144,0.804,1.478,1.049,0.442,0.792,0.750,�k�k��,4.9,��
2019/01/29,21:10,0.772,1.144,0.805,1.477,1.050,0.444,0.790,0.750,�k�k��,5.8,��
2019/01/29,21:20,0.772,1.145,0.802,1.474,1.049,0.442,0.791,0.750,�k�k��,5.9,��
2019/01/29,21:30,0.773,1.145,0.804,1.475,1.050,0.442,0.791,0.751,�k�k��,2.2,��
2019/01/29,21:40,0.773,1.144,0.803,1.476,1.047,0.443,0.792,0.750,�k,0.6,��
2019/01/29,21:50,0.772,1.142,0.803,1.474,1.050,0.443,0.790,0.751,�k�k��,3.0,��
2019/01/29,22:00,0.770,1.143,0.803,1.472,1.050,0.443,0.790,0.749,�k��,4.4,��
2019/01/29,22:10,0.772,1.143,0.805,1.474,1.049,0.442,0.791,0.749,�k��,3.4,��
2019/01/29,22:20,0.772,1.143,0.802,1.473,1.047,0.443,0.791,0.750,��,3.1,��
2019/01/29,22:30,0.770,1.142,0.803,1.473,1.048,0.442,0.790,0.749,���k��,2.3,��
2019/01/29,22:40,0.772,1.144,0.804,1.472,1.048,0.443,0.790,0.750,���k��,2.3,��
2019/01/29,22:50,0.771,1.142,0.804,1.474,1.050,0.442,0.790,0.750,��,1.2,��
2019/01/29,23:00,0.772,1.141,0.803,1.473,1.047,0.443,0.791,0.749,��,0.9,��
2019/01/29,23:10,0.771,1.142,0.804,1.474,1.048,0.441,0.790,0.749,�k��,1.2,��
2019/01/29,23:20,0.769,1.144,0.803,1.471,1.046,0.441,0.789,0.748,���k��,2.0,��
2019/01/29,23:30,0.770,1.142,0.803,1.475,1.047,0.442,0.789,0.751,��,1.5,��
2019/01/29,23:40,0.769,1.143,0.802,1.475,1.045,0.439,0.791,0.750,���쐼,1.5,��
2019/01/29,23:50,0.772,1.142,0.802,1.473,1.047,0.444,0.790,0.749,��,1.9,��
